Crest (411) Station Data

Red Flag Warning: No
Fire Weather Zone: 250
SDGE Region: Eastern
Lat/Lon: 32.812/-116.853

Observations

Time Wind Speed/Gust Temp(F) RH Fuel Moist Fuel Temp(F) Dewpt(F) Tmax(F) Tmin(F) Accum Precip 10-min Precip SL Press(mb)
6/22 5:00am 338 1 G 2 59° 100% - - 59° 67.9° 57.1° - - 923.0
6/22 4:50am 311 1 G 2 59° 100% - - 59° 67.9° 57.1° - - 923.0
6/22 4:40am 296 1 G 2 58° 100% - - 58° 67.9° 57.1° - - 923.0
6/22 4:30am 305 1 G 2 57° 100% - - 57° 67.9° 57.1° - - 923.0
6/22 4:20am 217 0 G 1 58° 100% - - 58° 67.9° 57.4° - - 923.0
6/22 4:10am 153 1 G 1 58° 100% - - 58° 67.9° 57.4° - - 923.0
6/22 4:00am 150 0 G 1 58° 100% - - 58° 67.9° 57.4° - - 923.0
6/22 3:50am 147 0 G 1 58° 100% - - 58° 67.9° 57.4° - - 923.0
6/22 3:40am 127 0 G 1 58° 100% - - 58° 67.9° 57.4° - - 923.0
6/22 3:30am 114 1 G 2 58° 100% - - 58° 67.9° 57.4° - - 923.0
6/22 3:20am 115 0 G 2 58° 100% - - 58° 67.9° 57.4° - - 923.0
6/22 3:10am 14 0 G 0 58° 100% - - 58° 67.9° 57.4° - - 923.0
6/22 3:00am 154 1 G 2 58° 100% - - 58° 67.9° 57.7° - - 923.0
6/22 2:50am 149 2 G 2 59° 100% - - 59° 67.9° 57.9° - - 923.0
6/22 2:40am 138 0 G 2 60° 100% - - 60° 67.9° 59.7° - - 923.0
6/22 2:30am 343 0 G 2 61° 100% - - 61° 67.9° 60.2° - - 924.0
6/22 2:20am 322 0 G 1 62° 100% - - 62° 67.9° 60.2° - - 924.0
6/22 2:10am 307 1 G 2 61° 100% - - 61° 67.9° 60.2° - - 924.0
6/22 2:00am 301 1 G 1 61° 100% - - 61° 67.9° 60.2° - - 924.0
6/22 1:50am 299 1 G 1 61° 100% - - 61° 67.9° 60.2° - - 923.0
6/22 1:40am 151 0 G 1 61° 100% - - 61° 67.9° 60.2° - - 923.0
6/22 1:30am 127 0 G 1 61° 100% - - 61° 67.9° 60.5° - - 924.0
6/22 1:20am 127 1 G 2 61° 100% - - 61° 67.9° 60.6° - - 924.0
6/22 1:10am 127 1 G 2 62° 100% - - 62° 67.9° 61.6° - - 924.0
6/22 1:00am 128 0 G 1 63° 100% - - 63° 67.9° 62.3° - - 920.0
6/22 12:50am 151 1 G 2 64° 100% - - 64° 67.9° 63.4° - - 904.0
6/22 12:40am 125 0 G 2 65° 99% - - 65° 67.9° 64.8° - - 897.0
6/22 12:30am 118 1 G 2 67° 92% - - 64° 67.9° 65.9° - - 894.0
6/22 12:20am 68 1 G 2 68° 87% - - 64° 67.9° 67.2° - - 893.0
6/22 12:10am 51 0 G 1 68° 90% - - 65° 67.9° 67.3° - - 894.0
6/22 12:00am 48 0 G 1 67° 93% - - 65° 91.6° 66.5° - - 895.0
6/21 11:50pm 0 0 G 0 67° 93% - - 65° 91.6° 66.5° - - 895.0
6/21 11:40pm 347 0 G 1 67° 91% - - 64° 91.6° 66.5° - - 894.0
6/21 11:30pm 300 0 G 1 67° 91% - - 65° 91.6° 66.5° - - 895.0
6/21 11:20pm 305 0 G 1 67° 90% - - 64° 91.6° 66.5° - - 894.0
6/21 11:10pm 131 0 G 1 68° 87% - - 64° 91.6° 66.5° - - 893.0
6/21 11:00pm 114 1 G 2 68° 89% - - 64° 91.6° 66.5° - - 894.0
6/21 10:50pm 329 1 G 2 67° 93% - - 65° 91.6° 66.5° - - 896.0
6/21 10:40pm 299 1 G 2 67° 94% - - 65° 91.6° 66.5° - - 896.0
6/21 10:30pm 133 1 G 2 67° 91% - - 64° 91.6° 66.7° - - 894.0
6/21 10:20pm 94 1 G 2 68° 87% - - 64° 91.6° 67.5° - - 893.0
6/21 10:10pm 69 1 G 1 68° 85% - - 64° 91.6° 68.1° - - 892.0
6/21 10:00pm 126 1 G 2 69° 82% - - 63° 91.6° 68.5° - - 891.0
6/21 9:50pm 37 0 G 1 69° 80% - - 63° 91.6° 69.2° - - 891.0
6/21 9:40pm 88 2 G 3 70° 78% - - 63° 91.6° 69.5° - - 890.0
6/21 9:30pm 104 1 G 3 71° 73% - - 62° 91.6° 70.2° - - 888.0
6/21 9:20pm 58 1 G 2 72° 70% - - 61° 91.6° 71.1° - - 887.0
6/21 9:10pm 359 2 G 3 72° 69% - - 61° 91.6° 71.6° - - 887.0
6/21 9:00pm 299 2 G 3 72° 68% - - 61° 91.6° 71.9° - - 887.0
6/21 8:50pm 288 3 G 4 72° 67% - - 61° 91.6° 72.1° - - 887.0
6/21 8:40pm 295 3 G 5 74° 64% - - 61° 91.6° 72.8° - - 886.0
6/21 8:30pm 311 3 G 4 74° 62% - - 60° 91.6° 73.3° - - 885.0
6/21 8:20pm 322 2 G 3 74° 62% - - 60° 91.6° 73.3° - - 885.0
6/21 8:10pm 325 3 G 5 75° 60% - - 60° 91.6° 73.3° - - 885.0
6/21 8:00pm 314 3 G 4 76° 58% - - 60° 91.6° 73.3° - - 885.0
6/21 7:50pm 297 3 G 4 77° 57% - - 60° 91.6° 73.3° - - 885.0
6/21 7:40pm 321 3 G 4 78° 54% - - 60° 91.6° 73.3° - - 884.0
6/21 7:30pm 312 2 G 4 80° 51% - - 60° 91.6° 73.3° - - 883.0
6/21 7:20pm 310 2 G 3 80° 51% - - 60° 91.6° 73.3° - - 883.0
6/21 7:10pm 291 3 G 5 80° 51% - - 60° 91.6° 73.3° - - 883.0
6/21 7:00pm 295 4 G 5 80° 50% - - 60° 91.6° 73.3° - - 883.0
6/21 6:50pm 298 5 G 7 80° 50% - - 59° 91.6° 73.3° - - 883.0
6/21 6:40pm 294 6 G 8 81° 48% - - 59° 91.6° 73.3° - - 883.0
6/21 6:30pm 289 5 G 7 81° 47% - - 59° 91.6° 73.3° - - 883.0
6/21 6:20pm 296 6 G 8 82° 46% - - 59° 91.6° 73.3° - - 882.0
6/21 6:10pm 296 7 G 11 81° 47% - - 59° 91.6° 73.3° - - 883.0
6/21 6:00pm 271 7 G 11 81° 47% - - 59° 91.6° 73.3° - - 883.0
6/21 5:50pm 268 7 G 10 82° 46% - - 59° 91.6° 73.3° - - 883.0
6/21 5:40pm 263 7 G 11 82° 45% - - 59° 91.6° 73.3° - - 883.0
6/21 5:30pm 274 8 G 11 83° 43% - - 59° 91.6° 73.3° - - 882.0
6/21 5:20pm 282 7 G 11 84° 41% - - 58° 91.6° 73.3° - - 882.0
6/21 5:10pm 279 7 G 10 84° 41% - - 58° 91.6° 73.3° - - 882.0
6/21 5:00pm 265 7 G 10 85° 40% - - 58° 91.6° 73.3° - - 882.0
6/21 4:50pm 264 6 G 11 85° 40% - - 58° 91.6° 73.3° - - 882.0
6/21 4:40pm 269 6 G 10 85° 40% - - 58° 91.6° 73.3° - - 882.0
6/21 4:30pm 267 7 G 10 85° 40% - - 58° 91.6° 73.3° - - 882.0
6/21 4:20pm 277 7 G 11 85° 40% - - 58° 91.6° 73.3° - - 882.0
6/21 4:10pm 274 7 G 12 85° 40% - - 58° 91.6° 73.3° - - 882.0
6/21 4:00pm 275 8 G 12 85° 40% - - 58° 91.6° 73.3° - - 882.0
6/21 3:50pm 270 8 G 12 85° 40% - - 58° 91.6° 73.3° - - 882.0
6/21 3:40pm 266 8 G 12 86° 39% - - 58° 91.6° 73.3° - - 882.0
6/21 3:30pm 272 9 G 14 85° 39% - - 58° 91.6° 73.3° - - 882.0
6/21 3:20pm 280 9 G 18 86° 39% - - 58° 91.6° 73.3° - - 882.0
6/21 3:10pm 272 10 G 13 86° 39% - - 58° 91.6° 73.3° - - 882.0
6/21 3:00pm 254 8 G 13 86° 38% - - 58° 91.6° 73.3° - - 882.0
6/21 2:50pm 271 9 G 13 86° 38% - - 58° 91.6° 73.3° - - 882.0
6/21 2:40pm 276 10 G 14 86° 37% - - 57° 91.6° 73.3° - - 882.0
6/21 2:30pm 274 11 G 15 86° 38% - - 57° 91.6° 73.3° - - 882.0
6/21 2:20pm 282 12 G 16 86° 37% - - 57° 91.6° 73.3° - - 882.0
6/21 2:10pm 277 10 G 17 87° 36% - - 57° 91.6° 73.3° - - 882.0
6/21 2:00pm 282 10 G 16 88° 36% - - 57° 91.6° 73.3° - - 882.0
6/21 1:50pm 271 11 G 15 88° 35% - - 57° 91.6° 73.3° - - 882.0
6/21 1:40pm 273 11 G 17 88° 33% - - 56° 91.6° 73.3° - - 882.0
6/21 1:30pm 283 11 G 16 89° 33% - - 56° 91.6° 73.3° - - 882.0
6/21 1:20pm 276 10 G 14 89° 33% - - 56° 91.6° 73.3° - - 882.0
6/21 1:10pm 282 9 G 13 90° 32% - - 57° 91.6° 73.3° - - 882.0
6/21 1:00pm 285 9 G 13 90° 33% - - 57° 91.6° 73.3° - - 882.0
6/21 12:50pm 284 7 G 12 90° 33% - - 57° 91.4° 73.3° - - 882.0
6/21 12:40pm 272 8 G 13 89° 34% - - 57° 90.5° 73.3° - - 882.0
6/21 12:30pm 286 9 G 13 89° 34% - - 56° 90.5° 73.3° - - 882.0
6/21 12:20pm 276 8 G 12 89° 33% - - 56° 90.5° 73.3° - - 882.0
6/21 12:10pm 279 9 G 13 89° 34% - - 57° 90.5° 73.3° - - 882.0
6/21 12:00pm 272 9 G 12 88° 35% - - 56° 90.5° 73.3° - - 883.0
6/21 11:50am 273 9 G 14 88° 33% - - 56° 90.5° 73.3° - - 883.0
6/21 11:40am 293 7 G 12 89° 31% - - 55° 90.5° 73.3° - - 882.0
6/21 11:30am 283 7 G 9 90° 30% - - 54° 90.5° 73.3° - - 882.0
6/21 11:20am 277 5 G 8 90° 30% - - 54° 90.5° 73.3° - - 881.0
6/21 11:10am 230 3 G 7 90° 30% - - 55° 90.5° 73.3° - - 881.0
6/21 11:00am 168 3 G 6 89° 32% - - 55° 90.1° 73.3° - - 881.0
6/21 10:50am 139 4 G 6 87° 34% - - 55° 87.9° 73.3° - - 882.0
6/21 10:40am 154 3 G 7 86° 35% - - 55° 86.8° 73.3° - - 882.0
6/21 10:30am 137 4 G 7 85° 37% - - 55° 86° 73.3° - - 882.0
6/21 10:20am 134 3 G 6 85° 37% - - 55° 86° 73.3° - - 882.0
6/21 10:10am 150 3 G 6 85° 36% - - 56° 86° 73.3° - - 882.0
6/21 10:00am 131 3 G 5 84° 37% - - 55° 85.2° 73.3° - - 882.0
6/21 9:50am 138 3 G 5 83° 37% - - 55° 85.2° 73.3° - - 882.0
6/21 9:40am 136 3 G 5 83° 37% - - 54° 85.2° 73.3° - - 881.0
6/21 9:30am 132 3 G 4 84° 36% - - 54° 85.2° 73.3° - - 881.0
6/21 9:20am 136 3 G 4 83° 34% - - 52° 85.2° 73.3° - - 880.0
6/21 9:10am 132 3 G 4 83° 33% - - 51° 85.2° 73.3° - - 879.0
6/21 9:00am 134 2 G 4 82° 35% - - 52° 85.2° 73.3° - - 880.0
6/21 8:50am 133 2 G 4 83° 35% - - 52° 85.2° 73.3° - - 879.0
6/21 8:40am 140 1 G 3 82° 34% - - 51° 85.2° 73.3° - - 879.0
6/21 8:30am 143 2 G 3 81° 38% - - 53° 85.2° 73.3° - - 880.0
6/21 8:20am 133 3 G 3 81° 36% - - 52° 85.2° 73.3° - - 878.0
6/21 8:10am 147 1 G 2 84° 31% - - 51° 85.2° 73.3° - - 877.0
6/21 8:00am 345 0 G 1 84° 30% - - 49° 84.5° 73.3° - - 876.0
6/21 7:50am 77 0 G 1 83° 30% - - 49° 84.5° 73.3° - - 875.0
6/21 7:40am 0 0 G 0 80° 33% - - 48° 81.2° 73.3° - - 875.0
6/21 7:30am 139 1 G 2 78° 32% - - 46° 79.1° 73.3° - - 874.0
6/21 7:20am 143 1 G 2 78° 37% - - 50° 79.1° 73.3° - - 876.0
6/21 7:10am 75 1 G 2 79° 37% - - 51° 79.1° 73.3° - - 876.0
6/21 7:00am 43 0 G 2 78° 36% - - 49° 79° 73.3° - - 875.0
6/21 6:50am 11 1 G 1 77° 37% - - 49° 78° 73.3° - - 875.0
6/21 6:40am 349 1 G 1 76° 38% - - 49° 78° 73.3° - - 875.0
6/21 6:30am 6 1 G 1 77° 38% - - 49° 78° 73.3° - - 875.0
6/21 6:20am 4 2 G 2 75° 39% - - 49° 78° 73.3° - - 875.0
6/21 6:10am 356 2 G 2 75° 40% - - 49° 78° 73.3° - - 875.0
6/21 6:00am 3 2 G 3 74° 41% - - 49° 78° 73.3° - - 875.0
6/21 5:50am 6 2 G 3 75° 40% - - 49° 78° 73.3° - - 875.0
6/21 5:40am 40 1 G 2 75° 39% - - 49° 78° 73.3° - - 875.0
6/21 5:30am 15 2 G 3 75° 39% - - 49° 78° 73.3° - - 875.0
6/21 5:20am 24 2 G 3 75° 38% - - 48° 78° 73.3° - - 874.0
6/21 5:10am 19 2 G 3 75° 38% - - 48° 78° 73.3° - - 875.0
6/21 5:00am 326 1 G 2 74° 41% - - 49° 78° 73.3° - - 876.0
6/21 4:50am 324 1 G 2 74° 43% - - 50° 78° 73.3° - - 876.0
6/21 4:40am 5 3 G 4 74° 43% - - 50° 78° 73.3° - - 876.0
6/21 4:30am 3 2 G 4 75° 40% - - 49° 78° 73.3° - - 875.0
6/21 4:20am 321 1 G 2 75° 38% - - 48° 78° 73.3° - - 875.0
6/21 4:10am 336 1 G 2 75° 40% - - 49° 78° 73.3° - - 875.0
6/21 4:00am 333 2 G 3 74° 40% - - 49° 78° 73.3° - - 875.0
6/21 3:50am 125 0 G 2 75° 39% - - 48° 78° 73.3° - - 875.0
6/21 3:40am 122 1 G 3 75° 38% - - 48° 78° 73.3° - - 874.0
6/21 3:30am 351 0 G 1 76° 37% - - 47° 78° 73.3° - - 874.0
6/21 3:20am 15 1 G 2 76° 37% - - 48° 78° 73.3° - - 874.0
6/21 3:10am 41 1 G 2 75° 40% - - 49° 78° 73.3° - - 876.0
6/21 3:00am 346 1 G 2 75° 44% - - 51° 78° 73.3° - - 877.0
6/21 2:50am 3 2 G 3 74° 47% - - 53° 78° 73.3° - - 878.0
6/21 2:40am 1 2 G 3 74° 48% - - 53° 78° 73.3° - - 879.0
6/21 2:30am 22 3 G 5 74° 47% - - 53° 78° 73.9° - - 878.0
6/21 2:20am 47 4 G 6 76° 44% - - 52° 78° 74.2° - - 877.0
6/21 2:10am 3 3 G 4 76° 44% - - 52° 78° 75.2° - - 877.0
6/21 2:00am 305 1 G 2 76° 42% - - 51° 78° 75.2° - - 877.0
6/21 1:50am 288 1 G 2 76° 42% - - 51° 78° 75.4° - - 877.0
6/21 1:40am 134 1 G 2 77° 41% - - 51° 78° 75.4° - - 876.0
6/21 1:30am 341 0 G 1 76° 45% - - 53° 78° 75.4° - - 878.0
6/21 1:20am 304 1 G 2 77° 44% - - 53° 78° 75.4° - - 878.0
6/21 1:10am 26 2 G 2 78° 42% - - 53° 78° 75.4° - - 877.0
6/21 1:00am 40 2 G 3 77° 42% - - 52° 77.5° 75.4° - - 877.0
6/21 12:50am 43 2 G 3 77° 44% - - 53° 77° 75.4° - - 878.0
6/21 12:40am 47 2 G 3 77° 45% - - 54° 76.9° 75.4° - - 878.0
6/21 12:30am 14 1 G 3 76° 49% - - 55° 76.5° 75.4° - - 880.0
6/21 12:20am 40 3 G 3 76° 49% - - 55° 76.5° 75.5° - - 880.0
6/21 12:10am 47 3 G 4 76° 49% - - 56° 76.5° 75.8° - - 880.0
6/21 12:00am 67 0 G 2 76° 49% - - 56° 94.6° 71.2° - - 880.0
6/20 11:50pm 0 0 G 0 77° 49% - - 56° 94.6° 71.2° - - 880.0
6/20 11:40pm 93 1 G 2 78° 46% - - 56° 94.6° 71.2° - - 879.0
6/20 11:30pm 289 0 G 1 78° 46% - - 55° 94.6° 71.2° - - 879.0
6/20 11:20pm 337 0 G 1 78° 46% - - 55° 94.6° 71.2° - - 879.0
6/20 11:10pm 16 1 G 2 78° 46% - - 56° 94.6° 71.2° - - 879.0
6/20 11:00pm 45 0 G 2 78° 45% - - 55° 94.6° 71.2° - - 879.0
6/20 10:50pm 299 0 G 2 78° 46% - - 56° 94.6° 71.2° - - 879.0
6/20 10:40pm 295 1 G 2 77° 49% - - 57° 94.6° 71.2° - - 880.0
6/20 10:30pm 273 1 G 2 77° 49% - - 57° 94.6° 71.2° - - 881.0
6/20 10:20pm 144 0 G 1 77° 49% - - 57° 94.6° 71.2° - - 881.0
6/20 10:10pm 135 1 G 1 78° 47% - - 56° 94.6° 71.2° - - 880.0
6/20 10:00pm 121 0 G 1 79° 46% - - 56° 94.6° 71.2° - - 880.0
6/20 9:50pm 0 0 G 0 79° 45% - - 56° 94.6° 71.2° - - 880.0
6/20 9:40pm 121 0 G 1 80° 44% - - 56° 94.6° 71.2° - - 880.0
6/20 9:30pm 112 0 G 1 80° 42% - - 55° 94.6° 71.2° - - 879.0
6/20 9:20pm 104 1 G 2 81° 40% - - 55° 94.6° 71.2° - - 879.0
6/20 9:10pm 85 1 G 2 82° 39% - - 54° 94.6° 71.2° - - 878.0
6/20 9:00pm 50 0 G 1 82° 38% - - 54° 94.6° 71.2° - - 878.0
6/20 8:50pm 24 1 G 2 82° 38% - - 54° 94.6° 71.2° - - 878.0
6/20 8:40pm 22 1 G 2 82° 38% - - 54° 94.6° 71.2° - - 879.0
6/20 8:30pm 51 0 G 1 83° 37% - - 54° 94.6° 71.2° - - 879.0
6/20 8:20pm 28 1 G 2 83° 36% - - 53° 94.6° 71.2° - - 878.0
6/20 8:10pm 308 1 G 2 83° 35% - - 53° 94.6° 71.2° - - 879.0
6/20 8:00pm 313 2 G 3 84° 35% - - 53° 94.6° 71.2° - - 879.0
6/20 7:50pm 309 3 G 4 84° 35% - - 53° 94.6° 71.2° - - 879.0
6/20 7:40pm 301 3 G 4 84° 34% - - 53° 94.6° 71.2° - - 879.0
6/20 7:30pm 301 3 G 5 85° 33% - - 52° 94.6° 71.2° - - 879.0
6/20 7:20pm 295 4 G 6 86° 31% - - 52° 94.6° 71.2° - - 879.0
6/20 7:10pm 299 4 G 6 86° 30% - - 51° 94.6° 71.2° - - 879.0
6/20 7:00pm 280 5 G 7 86° 30% - - 51° 94.6° 71.2° - - 879.0
6/20 6:50pm 291 5 G 7 87° 29% - - 51° 94.6° 71.2° - - 879.0
6/20 6:40pm 299 4 G 7 87° 29% - - 51° 94.6° 71.2° - - 879.0
6/20 6:30pm 277 7 G 9 87° 29% - - 51° 94.6° 71.2° - - 879.0
6/20 6:20pm 281 8 G 11 87° 29% - - 51° 94.6° 71.2° - - 879.0
6/20 6:10pm 280 9 G 12 88° 29% - - 51° 94.6° 71.2° - - 879.0
6/20 6:00pm 274 7 G 11 88° 28% - - 51° 94.6° 71.2° - - 879.0